Bangor, ME

7:57 PM EDT on September 23, 2017 (GMT -0400)
Bangor International

Weather History for KBGR - October, 2014

Change the Weather History Date:

Wednesday, October 22, 2014

  Actual Average Record
Temperature  
Mean Temperature 48 °F 45 °F  
Max Temperature 51 °F 55 °F 84 °F (1979)
Min Temperature 45 °F 35 °F 20 °F (1959)
Degree Days  
Heating Degree Days 17 20  
Month to date heating degree days 253 359  
Since 1 July heating degree days 488 631  
Cooling Degree Days 0 0  
Month to date cooling degree days 2 0  
Year to date cooling degree days 363 317  
Moisture  
Dew Point 44 °F    
Average Humidity 85    
Maximum Humidity 93    
Minimum Humidity 77    
Precipitation  
Precipitation 0.45 in 0.13 in 1.08 in (1942)
Month to date precipitation 4.37 2.98  
Year to date precipitation 33.00 33.06  
Snow  
Snow 0.00 in 0.00 in 1.10 in (1969)
Month to date snowfall 0.0 0.1  
Since 1 July snowfall 0.0 0.1  
Since 1 September snowfall 0.0 0.1  
Snow Depth 0.00 in    
Sea Level Pressure  
Sea Level Pressure 30.18 in    
Wind  
Wind Speed 14 mph (NNE)    
Max Wind Speed 23 mph    
Max Gust Speed 32 mph    
Visibility 7 miles    
Events Rain    
T = Trace of Precipitation, MM = Missing Value Source: NWS Daily Summary

Daily Weather History Graph

Daily Weather History Graph

Search for Another Location

Airport or City:

Trip Planner

Search our weather history database for the weather conditions in past years. The results will help you decide how hot, cold, wet, or windy it might be!

Date:

Astronomy

Oct. 22, 2014 Rise Set
Actual Time 6:59 AM EDT 5:38 PM EDT
Civil Twilight 6:30 AM EDT 6:08 PM EDT
Nautical Twilight 5:55 AM EDT 6:42 PM EDT
Astronomical Twilight 5:22 AM EDT 7:16 PM EDT
Moon 5:34 AM EDT (10/22) 5:05 PM EDT (10/22)
Length of Visible Light 11h 38m
Length of Day
10h 39m
Waning Crescent, 2% of the Moon is Illuminated
Oct 22
Waning Crescent
Oct 23
New
Oct 30
First Quarter
Nov 6
Full
Nov 14
Last Quarter

Hourly Weather History & Observations

Time (EDT) Temp. Windchill Dew Point Humidity Pressure Visibility Wind Dir Wind Speed Gust Speed Precip Events Conditions
12:53 AM 45.0 °F 38.5 °F 43.0 °F 93% 30.18 in 5.0 mi NNE 13.8 mph - 0.07 in Rain Light Rain
1:53 AM 46.0 °F 41.0 °F 44.1 °F 93% 30.18 in 6.0 mi NNE 10.4 mph - 0.06 in Rain Light Rain
2:53 AM 46.9 °F - 45.0 °F 93% 30.17 in 10.0 mi NNE 12.7 mph - 0.02 in   Light Drizzle
3:53 AM 46.9 °F - 45.0 °F 93% 30.18 in 10.0 mi NNE 12.7 mph - 0.00 in   Light Drizzle
4:53 AM 46.0 °F 41.0 °F 44.1 °F 93% 30.19 in 10.0 mi North 10.4 mph - 0.00 in   Light Drizzle
5:35 AM 45.0 °F 39.3 °F 43.0 °F 93% 30.19 in 10.0 mi NNE 11.5 mph - 0.00 in   Light Drizzle
5:53 AM 45.0 °F 38.9 °F 43.0 °F 93% 30.19 in 10.0 mi NNE 12.7 mph - 0.00 in   Overcast
6:10 AM 45.0 °F 39.7 °F 43.0 °F 93% 30.20 in 10.0 mi NNE 10.4 mph - N/A   Mostly Cloudy
6:53 AM 45.0 °F 39.7 °F 43.0 °F 93% 30.21 in 10.0 mi NNE 10.4 mph - N/A   Overcast
7:53 AM 45.0 °F 39.3 °F 43.0 °F 93% 30.22 in 10.0 mi NNE 11.5 mph - 0.00 in   Overcast
8:53 AM 46.0 °F 40.2 °F 43.0 °F 89% 30.22 in 10.0 mi NNE 12.7 mph - 0.00 in   Mostly Cloudy
9:53 AM 46.9 °F - 44.1 °F 90% 30.22 in 9.0 mi NNE 12.7 mph - 0.03 in Rain Light Rain
10:53 AM 48.9 °F - 44.1 °F 83% 30.21 in 10.0 mi NNE 18.4 mph 24.2 mph 0.01 in   Mostly Cloudy
11:53 AM 51.1 °F - 44.1 °F 77% 30.20 in 10.0 mi NNE 18.4 mph 27.6 mph N/A   Mostly Cloudy
12:53 PM 51.1 °F - 42.1 °F 71% 30.18 in 10.0 mi NE 19.6 mph 28.8 mph 0.00 in Rain Light Rain
1:53 PM 48.0 °F - 44.1 °F 86% 30.17 in 7.0 mi NNE 15.0 mph - 0.06 in Rain Light Rain
2:53 PM 48.0 °F - 44.1 °F 86% 30.17 in 4.0 mi NNE 16.1 mph 26.5 mph 0.07 in Rain Light Rain
3:14 PM 48.0 °F - 45.0 °F 89% 30.18 in 1.8 mi NNE 16.1 mph 24.2 mph 0.04 in Rain Rain
3:53 PM 46.9 °F - 44.1 °F 90% 30.17 in 3.0 mi NNE 17.3 mph 26.5 mph 0.10 in Rain Light Rain
4:09 PM 48.0 °F - 44.1 °F 86% 30.18 in 5.0 mi NNE 15.0 mph 25.3 mph 0.00 in Rain Light Rain
4:53 PM 46.9 °F - 44.1 °F 90% 30.18 in 10.0 mi NNE 17.3 mph 25.3 mph 0.00 in   Overcast
5:53 PM 46.9 °F - 44.1 °F 90% 30.18 in 10.0 mi NNE 16.1 mph - 0.00 in Rain Light Rain
6:53 PM 46.0 °F 39.0 °F 43.0 °F 89% 30.17 in 2.5 mi NNE 17.3 mph 24.2 mph 0.03 in Rain Light Rain
7:53 PM 46.0 °F 39.9 °F 44.1 °F 93% 30.16 in 2.0 mi NNE 13.8 mph - 0.02 in Rain Light Rain
8:53 PM 46.0 °F 39.3 °F 43.0 °F 89% 30.14 in 2.5 mi NNE 16.1 mph - 0.02 in Rain Light Rain
9:53 PM 45.0 °F 38.9 °F 43.0 °F 93% 30.12 in 5.0 mi NNE 12.7 mph - 0.01 in   Light Drizzle
10:53 PM 46.0 °F 39.9 °F 44.1 °F 93% 30.13 in 3.0 mi NNE 13.8 mph - 0.00 in   Light Drizzle
11:53 PM 46.0 °F 39.3 °F 44.1 °F 93% 30.11 in 6.0 mi NE 16.1 mph - 0.02 in   Light Drizzle